Wolf Creek, OR

4:44 AM PST on February 27, 2017 (GMT -0800)
Sexton Summit

Weather History for KSXT - September, 2013

Change the Weather History Date:

Tuesday, September 24, 2013

  Actual Average Record
Temperature  
Mean Temperature 42 °F -  
Max Temperature 48 °F 66 °F 86 °F (2003)
Min Temperature 37 °F 49 °F 37 °F (2013)
Degree Days  
Heating Degree Days 24    
Moisture  
Dew Point 43 °F    
Average Humidity 98    
Maximum Humidity 100    
Minimum Humidity 86    
Precipitation  
Precipitation 0.30 in - - ()
Sea Level Pressure  
Sea Level Pressure 29.97 in    
Wind  
Wind Speed 3 mph (West)    
Max Wind Speed 6 mph    
Max Gust Speed -    
Visibility 4 miles    
Events Fog , Rain    
Averages and records for this station are not official NWS values.
T = Trace of Precipitation, MM = Missing Value Source: NWS Daily Summary

Daily Weather History Graph

Daily Weather History Graph

Search for Another Location

Airport or City:

Trip Planner

Search our weather history database for the weather conditions in past years. The results will help you decide how hot, cold, wet, or windy it might be!

Date:

Astronomy

Sep. 24, 2013 Rise Set
Actual Time 7:03 AM PDT 7:06 PM PDT
Civil Twilight 6:35 AM PDT 7:34 PM PDT
Nautical Twilight 6:02 AM PDT 8:07 PM PDT
Astronomical Twilight 5:28 AM PDT 8:40 PM PDT
Moon 10:21 PM PDT (9/24) 12:29 PM PDT (9/24)
Length of Visible Light 12h 59m
Length of Day
12h 03m
Waning Gibbous, 72% of the Moon is Illuminated
Sep 24
Waning Gibbous
Sep 26
Last Quarter
Oct 4
New
Oct 11
First Quarter
Oct 18
Full

Hourly Weather History & Observations

Time (PDT) Temp. Windchill Dew Point Humidity Pressure Visibility Wind Dir Wind Speed Gust Speed Precip Events Conditions
12:56 AM 46.0 °F 44.8 °F 44.1 °F 93% 29.98 in 10.0 mi Variable 3.5 mph - N/A   Mostly Cloudy
1:18 AM 46.4 °F 45.2 °F 44.6 °F 93% 30.02 in 10.0 mi West 3.5 mph - N/A   Overcast
1:53 AM 46.4 °F - 44.6 °F 93% 30.02 in 4.0 mi Calm Calm - N/A   Overcast
1:56 AM 46.0 °F - 45.0 °F 96% 29.99 in 3.0 mi Calm Calm - N/A   Overcast
2:10 AM 46.4 °F 45.2 °F 44.6 °F 93% 30.01 in 8.0 mi SSW 3.5 mph - N/A   Overcast
2:56 AM 45.0 °F 43.5 °F 44.1 °F 97% 29.97 in 10.0 mi WNW 3.5 mph - N/A   Mostly Cloudy
3:37 AM 44.6 °F 43.1 °F 42.8 °F 93% 29.99 in 10.0 mi WSW 3.5 mph - N/A   Overcast
3:56 AM 45.0 °F 42.6 °F 43.0 °F 93% 29.95 in 10.0 mi SW 4.6 mph - N/A   Overcast
4:03 AM 44.6 °F 42.2 °F 42.8 °F 93% 29.99 in 10.0 mi WSW 4.6 mph - N/A   Overcast
4:17 AM 44.6 °F 42.2 °F 44.6 °F 100% 29.98 in 2.5 mi Variable 4.6 mph - 0.00 in Rain Light Rain
4:19 AM 44.6 °F 43.1 °F 44.6 °F 100% 29.98 in 1.8 mi WSW 3.5 mph - 0.01 in Rain Light Rain
4:21 AM 44.6 °F - 44.6 °F 100% 29.98 in 1.2 mi Calm Calm - 0.01 in Rain Light Rain
4:24 AM 44.6 °F 43.1 °F 44.6 °F 100% 29.98 in 0.8 mi Variable 3.5 mph - 0.01 in Rain Light Rain
4:37 AM 44.6 °F 43.1 °F 44.6 °F 100% 29.98 in 0.2 mi SW 3.5 mph - 0.02 in Fog , Rain Light Rain
4:56 AM 45.0 °F - 45.0 °F 100% 29.95 in 0.2 mi Calm Calm - 0.03 in Fog , Rain Light Rain
5:09 AM 44.6 °F - 44.6 °F 100% 29.98 in 0.5 mi Calm Calm - 0.01 in Fog , Rain Light Rain
5:17 AM 44.6 °F - 44.6 °F 100% 29.98 in 0.2 mi Calm Calm - 0.02 in Fog , Rain Light Rain
5:31 AM 44.6 °F - 44.6 °F 100% 29.98 in 0.2 mi Calm Calm - 0.04 in Fog , Rain Light Rain
5:48 AM 44.6 °F 43.1 °F 44.6 °F 100% 29.98 in 0.5 mi Variable 3.5 mph - 0.10 in Fog , Rain Light Rain
5:56 AM 44.1 °F 40.8 °F 44.1 °F 100% 29.95 in 0.5 mi NNW 5.8 mph - 0.12 in Fog , Rain Light Rain
6:24 AM 44.6 °F - 44.6 °F 100% 29.98 in 0.5 mi Calm Calm - 0.03 in Fog , Rain Light Rain
6:49 AM 42.8 °F - 42.8 °F 100% 29.98 in 0.2 mi Calm Calm - 0.04 in Fog , Rain Light Rain
6:56 AM 42.1 °F 40.2 °F 42.1 °F 100% 29.97 in 0.2 mi NNW 3.5 mph - 0.05 in Fog , Rain Light Rain
7:21 AM 42.8 °F 41.1 °F 42.8 °F 100% 29.99 in 0.8 mi Variable 3.5 mph - 0.02 in Rain Light Rain
7:46 AM 42.8 °F 40.1 °F 42.8 °F 100% 29.99 in 0.2 mi Variable 4.6 mph - 0.02 in Fog Fog
7:56 AM 42.1 °F 40.2 °F 42.1 °F 100% 29.98 in 0.2 mi Variable 3.5 mph - 0.02 in Fog Fog
8:07 AM 42.8 °F 40.1 °F 42.8 °F 100% 29.99 in 0.2 mi Variable 4.6 mph - N/A Fog Fog
8:22 AM 42.8 °F 40.1 °F 42.8 °F 100% 29.99 in 0.2 mi Variable 4.6 mph - N/A Fog Fog
8:30 AM 42.8 °F 40.1 °F 42.8 °F 100% 30.00 in 0.2 mi Variable 4.6 mph - N/A Fog Fog
8:41 AM 42.8 °F 39.3 °F 42.8 °F 100% 30.00 in 0.2 mi Variable 5.8 mph - N/A Fog Fog
8:56 AM 43.0 °F 41.3 °F 43.0 °F 100% 29.99 in 0.2 mi Variable 3.5 mph - N/A Fog Fog
9:20 AM 42.8 °F - 42.8 °F 100% 30.01 in 0.8 mi Calm Calm - N/A   Overcast
9:31 AM 42.8 °F 41.1 °F 42.8 °F 100% 30.01 in 0.2 mi Variable 3.5 mph - N/A Fog Fog
9:56 AM 44.1 °F - 44.1 °F 100% 30.00 in 0.2 mi Calm Calm - N/A Fog Fog
10:23 AM 44.6 °F - 44.6 °F 100% 30.01 in 0.5 mi Calm Calm - N/A Fog Fog
10:39 AM 44.6 °F 43.1 °F 44.6 °F 100% 30.01 in 2.0 mi Variable 3.5 mph - N/A   Overcast
10:46 AM 44.6 °F 43.1 °F 44.6 °F 100% 30.02 in 8.0 mi Variable 3.5 mph - N/A   Overcast
10:56 AM 43.0 °F - 43.0 °F 100% 30.01 in 10.0 mi Calm Calm - N/A   Overcast
11:09 AM 42.8 °F - 42.8 °F 100% 30.02 in 10.0 mi Calm Calm - N/A   Overcast
11:18 AM 44.6 °F - 44.6 °F 100% 30.02 in 10.0 mi Calm Calm - N/A   Overcast
11:28 AM 46.4 °F - 42.8 °F 87% 30.02 in 10.0 mi Calm Calm - N/A   Overcast
11:56 AM 46.9 °F - 43.0 °F 86% 29.99 in 10.0 mi Variable 3.5 mph - N/A   Overcast
12:04 PM 46.4 °F - 44.6 °F 93% 30.01 in 10.0 mi Calm Calm - N/A   Overcast
12:44 PM 46.4 °F 45.2 °F 44.6 °F 93% 30.00 in 7.0 mi Variable 3.5 mph - 0.01 in Rain Light Rain
12:56 PM 46.0 °F 44.8 °F 44.1 °F 93% 29.98 in 5.0 mi Variable 3.5 mph - 0.01 in Rain Light Rain
1:10 PM 44.6 °F - 42.8 °F 93% 30.00 in 1.8 mi Calm Calm - 0.02 in Rain Light Rain
1:20 PM 44.6 °F 42.2 °F 42.8 °F 93% 30.00 in 3.0 mi Variable 4.6 mph - 0.03 in Rain Light Rain
1:27 PM 46.4 °F 45.2 °F 44.6 °F 93% 29.99 in 10.0 mi Variable 3.5 mph - 0.03 in   Overcast
1:42 PM 46.4 °F 44.3 °F 46.4 °F 100% 29.99 in 9.0 mi Variable 4.6 mph - 0.03 in   Mostly Cloudy
2:37 PM 46.4 °F - 44.6 °F 93% 29.98 in 10.0 mi Calm Calm - N/A   Overcast
2:56 PM 46.9 °F - 45.0 °F 93% 29.96 in 10.0 mi Variable 5.8 mph - N/A   Overcast
3:18 PM 46.4 °F - 44.6 °F 93% 29.97 in 10.0 mi Calm Calm - N/A   Overcast
3:56 PM 46.9 °F - 45.0 °F 93% 29.94 in 10.0 mi Variable 3.5 mph - N/A   Overcast
4:21 PM 44.6 °F 43.1 °F 44.6 °F 100% 29.95 in 1.8 mi Variable 3.5 mph - 0.00 in Rain Light Rain
4:32 PM 46.4 °F 44.3 °F 44.6 °F 93% 29.95 in 3.0 mi Variable 4.6 mph - 0.01 in Rain Light Rain
4:56 PM 45.0 °F - 44.1 °F 97% 29.94 in 9.0 mi Calm Calm - 0.01 in   Overcast
5:08 PM 46.4 °F - 44.6 °F 93% 29.95 in 10.0 mi Calm Calm - N/A   Overcast
5:50 PM 44.6 °F 43.1 °F 42.8 °F 93% 29.94 in 1.0 mi Variable 3.5 mph - N/A   Overcast
6:04 PM 42.8 °F 41.1 °F 42.8 °F 100% 29.93 in 4.0 mi Variable 3.5 mph - N/A   Overcast
6:45 PM 42.8 °F - 42.8 °F 100% 29.93 in 8.0 mi Calm Calm - N/A   Overcast
7:56 PM 39.9 °F - 39.9 °F 100% 29.94 in 1.2 mi Calm Calm - 0.05 in Rain Light Rain
8:38 PM 39.2 °F 37.0 °F 39.2 °F 100% 29.93 in 1.0 mi Variable 3.5 mph - 0.00 in   Overcast
8:56 PM 39.0 °F 35.7 °F 39.0 °F 100% 29.94 in 0.5 mi Variable 4.6 mph - 0.00 in Fog Fog
9:07 PM 39.2 °F - 39.2 °F 100% 29.93 in 0.5 mi Calm Calm - N/A Fog Fog
9:18 PM 39.2 °F 35.9 °F 39.2 °F 100% 29.93 in 0.2 mi Variable 4.6 mph - N/A Fog Fog
9:43 PM 39.2 °F 35.9 °F 39.2 °F 100% 29.92 in 0.5 mi Variable 4.6 mph - 0.00 in Fog , Rain Light Rain
9:56 PM 39.0 °F 34.8 °F 39.0 °F 100% 29.93 in 0.8 mi Variable 5.8 mph - 0.01 in Rain Light Rain
10:05 PM 39.2 °F 35.0 °F 39.2 °F 100% 29.92 in 1.0 mi Variable 5.8 mph - 0.00 in   Overcast
10:13 PM 37.4 °F 34.9 °F 37.4 °F 100% 29.92 in 1.0 mi Variable 3.5 mph - 0.00 in Rain Light Rain
10:22 PM 37.4 °F 34.9 °F 37.4 °F 100% 29.92 in 0.8 mi Variable 3.5 mph - 0.00 in   Overcast
10:39 PM 37.4 °F 33.8 °F 37.4 °F 100% 29.91 in 0.8 mi Variable 4.6 mph - 0.00 in   Overcast
10:56 PM 37.9 °F 35.5 °F 37.9 °F 100% 29.93 in 0.2 mi Variable 3.5 mph - 0.00 in Fog Fog
11:01 PM 37.4 °F 34.9 °F 37.4 °F 100% 29.92 in 0.5 mi Variable 3.5 mph - N/A Fog Fog
11:15 PM 37.4 °F 33.8 °F 37.4 °F 100% 29.91 in 0.8 mi Variable 4.6 mph - N/A   Overcast
11:32 PM 37.4 °F 34.9 °F 37.4 °F 100% 29.91 in 1.0 mi Variable 3.5 mph - N/A   Overcast
11:42 PM 37.4 °F 33.8 °F 37.4 °F 100% 29.91 in 0.8 mi Variable 4.6 mph - N/A   Overcast
11:56 PM 37.9 °F 34.4 °F 37.9 °F 100% 29.91 in 0.8 mi Variable 4.6 mph - N/A   Overcast